Showing default

NORSAT 3, 48272

Orbit data source: Space-Track

NORSAT 3, 48272 is a payload satellite owned by Statsat (NO) in SSO that was launched on Thu, 29 Apr 2021 UTC via a VEGA launch vehicle from the French Guiana (FRGUI). Payload-class satellites include a variety of spacecraft equipped with specific instruments for various scientific and technological missions. These include communications satellites like Starlink; space stations such as the ISS; scientific satellites like the Hubble; Earth observation satellites from companies like Planet Labs, Umbra, and HawkEye 360; GPS; miniature CubeSats for education and research; and military/defense satellites.

Loading next visibility...
Identifier
48272, 2021-034E
Orbit
SSO
Country
Flag of NONO / NOR
Related business
Manufacturer
UTIAS-SFL
Mission
Operational Commercial Communications
Bus & Motor
NEMO, Unknown motor
Mass
15 kg wet, 15 kg dry
Launch date (UTC)
2021-04-29 (5 years ago)
Launch vehicle
VEGA
Launch site
French Guiana (FRGUI)
Object type
Payload
Rocket body
Debris
Shape & HBR
Box, 1.0 m
Radar Cross Section
0.100 m², Medium (>0.1 m² and < 1m²)

Expand to show TLE details & history
Last TLE update: 22 hours ago

TLE from 22 hours ago
0 NORSAT 3
1 48272U 21034E   26172.53007692  .00002882  00000-0  20564-3 0  9993
2 48272  97.5304 229.6970 0005640 291.1016  68.9608 15.05301146280499
Epoch: 2026-06-21T12:43Z
TLE epoch observation values (Epoch: 2026-06-21T12:43:18.645Z)
Latitude
-0.00001°
Longitude
129.14029°
Altitude
552.247 km
Speed
7.586 km/s
True Right ascension
15h 18m 47s
True Declination
0° 00' 00"
Sunlit
Object was in full shadow at epoch
Visualization orbit readout
Latitude
Unknown
Longitude
Unknown
Altitude
Unknown
Speed
Unknown
Apparent Right ascension
Unknown
Apparent Declination
Unknown
Sunlit
N/A
Visualization observer readout
Local Sidereal Time
21:41:57
Azimuth
Unknown
Elevation
Unknown
Doppler factor
Unknown
Orbital elements
Apogee altitude
551.478 km
Perigee altitude
543.666 km
Semi-major axis
6,925.709 km
Eccentricity
0.00056
Inclination
97.5304°
RAAN
229.697°
Arg. of periapsis
291.1016°
True anomaly
69.02114°
Mean anomaly
68.9608°
Eccentric anomaly
68.99097°
Mean motion
3.76571 °/min
Orbital period
95.6 mins
BSTAR
0.00020564
Loading maneuver chart data...
Computing Atmospheric mass density...
Loading historical data...
Loading historical data...
Loading historical data...
Loading historical data...
Loading historical data...
Loading historical data...
Loading historical data...

Documentation

Showing up to 5 results
|